Time,TemperatureF,DewpointF,PressureIn,WindDirection,WindDirectionDegrees,WindSpeedMPH,WindSpeedGustMPH,Humidity,HourlyPrecipIn,Conditions,Clouds,dailyrainin,SolarRadiationWatts/m^2,SoftwareType,DateUTC
2013-10-07 00:10:00,76.1,74.2,29.82,North,-999,0.0,0.0,94,0.00,,,-99.99,0,WeatherLink 5.4,2013-10-07 04:10:00,
2013-10-07 00:12:00,76.1,74.2,29.82,North,-999,0.0,0.0,94,0.00,,,-99.99,0,WeatherLink 5.4,2013-10-07 04:12:00,
2013-10-07 00:26:00,76.1,74.2,29.82,North,-999,0.0,0.0,94,0.00,,,-99.99,0,WeatherLink 5.4,2013-10-07 04:26:00,
2013-10-07 00:30:00,76.1,74.2,29.81,North,-999,0.0,0.0,94,0.00,,,-99.99,0,WeatherLink 5.4,2013-10-07 04:30:00,
2013-10-07 00:40:00,76.1,74.2,29.81,North,-999,0.0,0.0,94,0.00,,,-99.99,0,WeatherLink 5.4,2013-10-07 04:40:00,
2013-10-07 00:41:00,76.1,74.2,29.81,North,-999,0.0,0.0,94,0.00,,,-99.99,0,WeatherLink 5.4,2013-10-07 04:41:00,
2013-10-07 00:56:00,76.0,74.1,29.81,North,-999,0.0,0.0,94,0.00,,,-99.99,0,WeatherLink 5.4,2013-10-07 04:56:00,
2013-10-07 01:00:00,75.8,73.9,29.81,North,-999,0.0,0.0,94,0.00,,,-99.99,0,WeatherLink 5.4,2013-10-07 05:00:00,
2013-10-07 01:10:00,75.8,73.9,29.81,North,-999,0.0,0.0,94,0.00,,,-99.99,0,WeatherLink 5.4,2013-10-07 05:10:00,
2013-10-07 01:11:00,75.8,73.9,29.81,North,-999,0.0,0.0,94,0.00,,,-99.99,0,WeatherLink 5.4,2013-10-07 05:11:00,
2013-10-07 01:26:00,75.8,73.9,29.81,North,-999,0.0,0.0,94,0.00,,,-99.99,0,WeatherLink 5.4,2013-10-07 05:26:00,
2013-10-07 01:30:00,75.6,73.8,29.81,North,-999,0.0,0.0,94,0.00,,,-99.99,0,WeatherLink 5.4,2013-10-07 05:30:00,
2013-10-07 01:40:00,75.6,73.8,29.81,North,-999,0.0,0.0,94,0.00,,,-99.99,0,WeatherLink 5.4,2013-10-07 05:40:00,
2013-10-07 01:41:00,75.6,73.8,29.81,North,-999,0.0,0.0,94,0.00,,,-99.99,0,WeatherLink 5.4,2013-10-07 05:41:00,
2013-10-07 01:56:00,75.6,73.8,29.81,North,-999,0.0,0.0,94,0.00,,,-99.99,0,WeatherLink 5.4,2013-10-07 05:56:00,
2013-10-07 02:00:00,75.6,73.8,29.80,North,-999,0.0,0.0,94,0.00,,,-99.99,0,WeatherLink 5.4,2013-10-07 06:00:00,
2013-10-07 02:10:00,75.5,73.7,29.80,North,-999,0.0,0.0,94,0.00,,,-99.99,0,WeatherLink 5.4,2013-10-07 06:10:00,
2013-10-07 02:11:00,75.5,73.7,29.80,North,-999,0.0,0.0,94,0.00,,,-99.99,0,WeatherLink 5.4,2013-10-07 06:11:00,
2013-10-07 02:26:00,75.4,73.6,29.80,North,-999,0.0,0.0,94,0.00,,,-99.99,0,WeatherLink 5.4,2013-10-07 06:26:00,
2013-10-07 02:30:00,75.2,73.4,29.80,North,-999,0.0,0.0,94,0.00,,,-99.99,0,WeatherLink 5.4,2013-10-07 06:30:00,
2013-10-07 02:40:00,75.1,73.3,29.80,North,-999,0.0,0.0,94,0.00,,,-99.99,0,WeatherLink 5.4,2013-10-07 06:40:00,
2013-10-07 02:41:00,75.1,73.3,29.80,North,-999,0.0,0.0,94,0.00,,,-99.99,0,WeatherLink 5.4,2013-10-07 06:41:00,
2013-10-07 02:50:00,75.0,73.2,29.79,North,-999,0.0,0.0,94,0.00,,,-99.99,0,WeatherLink 5.4,2013-10-07 06:50:00,
2013-10-07 02:56:00,75.0,73.2,29.79,North,-999,0.0,0.0,94,0.00,,,-99.99,0,WeatherLink 5.4,2013-10-07 06:56:00,
2013-10-07 03:00:00,74.9,73.1,29.79,North,-999,0.0,0.0,94,0.00,,,-99.99,0,WeatherLink 5.4,2013-10-07 07:00:00,
2013-10-07 03:10:00,74.9,73.1,29.79,North,-999,0.0,0.0,94,0.00,,,-99.99,0,WeatherLink 5.4,2013-10-07 07:10:00,
2013-10-07 03:20:00,74.9,73.1,29.79,North,-999,0.0,0.0,94,0.00,,,-99.99,0,WeatherLink 5.4,2013-10-07 07:20:00,
2013-10-07 03:25:00,74.9,73.1,29.79,North,-999,0.0,0.0,94,0.00,,,-99.99,0,WeatherLink 5.4,2013-10-07 07:25:00,
2013-10-07 03:30:00,74.9,73.1,29.79,North,-999,0.0,0.0,94,0.00,,,-99.99,0,WeatherLink 5.4,2013-10-07 07:30:00,
2013-10-07 03:40:00,74.9,73.1,29.79,North,-999,0.0,0.0,94,0.00,,,-99.99,0,WeatherLink 5.4,2013-10-07 07:40:00,
2013-10-07 03:50:00,74.9,73.1,29.78,North,-999,0.0,0.0,94,0.00,,,-99.99,0,WeatherLink 5.4,2013-10-07 07:50:00,
2013-10-07 03:55:00,74.9,73.1,29.78,North,-999,0.0,0.0,94,0.00,,,-99.99,0,WeatherLink 5.4,2013-10-07 07:55:00,
2013-10-07 04:00:00,74.9,73.1,29.78,North,-999,0.0,0.0,94,0.00,,,-99.99,0,WeatherLink 5.4,2013-10-07 08:00:00,
2013-10-07 04:10:00,74.9,73.1,29.78,North,-999,0.0,0.0,94,0.00,,,-99.99,0,WeatherLink 5.4,2013-10-07 08:10:00,
2013-10-07 04:20:00,74.8,73.0,29.78,North,-999,0.0,0.0,94,0.00,,,-99.99,0,WeatherLink 5.4,2013-10-07 08:20:00,
2013-10-07 04:25:00,74.8,73.0,29.78,North,-999,0.0,0.0,94,0.00,,,-99.99,0,WeatherLink 5.4,2013-10-07 08:25:00,
2013-10-07 04:30:00,74.7,72.9,29.78,North,-999,0.0,0.0,94,0.00,,,-99.99,0,WeatherLink 5.4,2013-10-07 08:30:00,
2013-10-07 04:40:00,74.7,73.2,29.78,North,-999,0.0,0.0,95,0.00,,,-99.99,0,WeatherLink 5.4,2013-10-07 08:40:00,
2013-10-07 04:50:00,74.7,72.9,29.78,North,-999,0.0,0.0,94,0.00,,,-99.99,0,WeatherLink 5.4,2013-10-07 08:50:00,
2013-10-07 04:55:00,74.7,72.9,29.78,North,-999,0.0,0.0,94,0.00,,,-99.99,0,WeatherLink 5.4,2013-10-07 08:55:00,
2013-10-07 05:00:00,74.6,72.8,29.77,North,-999,0.0,0.0,94,0.00,,,-99.99,0,WeatherLink 5.4,2013-10-07 09:00:00,
2013-10-07 05:10:00,74.6,72.8,29.77,North,-999,0.0,0.0,94,0.00,,,-99.99,0,WeatherLink 5.4,2013-10-07 09:10:00,
2013-10-07 05:20:00,74.4,72.9,29.78,North,-999,0.0,0.0,95,0.00,,,-99.99,0,WeatherLink 5.4,2013-10-07 09:20:00,
2013-10-07 05:25:00,74.4,72.9,29.78,North,-999,0.0,0.0,95,0.00,,,-99.99,0,WeatherLink 5.4,2013-10-07 09:25:00,
2013-10-07 05:39:00,74.4,72.9,29.78,North,-999,0.0,0.0,95,0.00,,,-99.99,0,WeatherLink 5.4,2013-10-07 09:39:00,
2013-10-07 05:40:00,74.4,72.9,29.78,North,-999,0.0,0.0,95,0.00,,,-99.99,0,WeatherLink 5.4,2013-10-07 09:40:00,
2013-10-07 05:50:00,74.4,72.9,29.78,North,-999,0.0,0.0,95,0.00,,,-99.99,0,WeatherLink 5.4,2013-10-07 09:50:00,
2013-10-07 05:54:00,74.4,72.9,29.78,North,-999,0.0,0.0,95,0.00,,,-99.99,0,WeatherLink 5.4,2013-10-07 09:54:00,
2013-10-07 06:09:00,74.3,72.8,29.78,North,-999,0.0,0.0,95,0.00,,,-99.99,0,WeatherLink 5.4,2013-10-07 10:09:00,
2013-10-07 06:10:00,74.2,72.7,29.78,North,-999,0.0,0.0,95,0.00,,,-99.99,0,WeatherLink 5.4,2013-10-07 10:10:00,
2013-10-07 06:20:00,74.2,72.7,29.79,North,-999,0.0,0.0,95,0.00,,,-99.99,0,WeatherLink 5.4,2013-10-07 10:20:00,
2013-10-07 06:24:00,74.2,72.7,29.79,North,-999,0.0,0.0,95,0.00,,,-99.99,0,WeatherLink 5.4,2013-10-07 10:24:00,
2013-10-07 06:39:00,74.2,72.7,29.79,North,-999,0.0,0.0,95,0.00,,,-99.99,8,WeatherLink 5.4,2013-10-07 10:39:00,
2013-10-07 06:40:00,74.2,72.7,29.79,North,-999,0.0,0.0,95,0.00,,,-99.99,24,WeatherLink 5.4,2013-10-07 10:40:00,
2013-10-07 06:50:00,74.4,72.9,29.79,North,-999,0.0,0.0,95,0.00,,,-99.99,45,WeatherLink 5.4,2013-10-07 10:50:00,
2013-10-07 06:54:00,74.4,72.9,29.79,North,-999,0.0,0.0,95,0.00,,,-99.99,45,WeatherLink 5.4,2013-10-07 10:54:00,
2013-10-07 07:09:00,74.7,73.2,29.80,North,-999,0.0,0.0,95,0.00,,,-99.99,88,WeatherLink 5.4,2013-10-07 11:09:00,
2013-10-07 07:10:00,75.2,73.7,29.80,North,-999,0.0,0.0,95,0.00,,,-99.99,122,WeatherLink 5.4,2013-10-07 11:10:00,
2013-10-07 07:20:00,75.8,74.3,29.81,North,-999,0.0,0.0,95,0.00,,,-99.99,157,WeatherLink 5.4,2013-10-07 11:20:00,
2013-10-07 07:24:00,75.8,74.3,29.81,North,-999,0.0,0.0,95,0.00,,,-99.99,157,WeatherLink 5.4,2013-10-07 11:24:00,
2013-10-07 07:39:00,76.4,74.9,29.81,North,-999,0.0,0.0,95,0.00,,,-99.99,197,WeatherLink 5.4,2013-10-07 11:39:00,
2013-10-07 07:40:00,76.9,75.4,29.81,North,-999,0.0,0.0,95,0.00,,,-99.99,231,WeatherLink 5.4,2013-10-07 11:40:00,
2013-10-07 07:50:00,77.1,75.6,29.82,North,-999,0.0,0.0,95,0.00,,,-99.99,274,WeatherLink 5.4,2013-10-07 11:50:00,
2013-10-07 07:54:00,77.1,75.6,29.82,North,-999,0.0,0.0,95,0.00,,,-99.99,274,WeatherLink 5.4,2013-10-07 11:54:00,
2013-10-07 08:08:00,77.5,75.6,29.83,North,-999,0.0,0.0,94,0.00,,,-99.99,314,WeatherLink 5.4,2013-10-07 12:08:00,
2013-10-07 08:10:00,78.1,76.2,29.83,North,-999,0.0,0.0,94,0.00,,,-99.99,345,WeatherLink 5.4,2013-10-07 12:10:00,
2013-10-07 08:20:00,78.6,76.1,29.83,North,-999,0.0,0.0,92,0.00,,,-99.99,390,WeatherLink 5.4,2013-10-07 12:20:00,
2013-10-07 08:24:00,78.6,76.1,29.83,North,-999,0.0,0.0,92,0.00,,,-99.99,390,WeatherLink 5.4,2013-10-07 12:24:00,
2013-10-07 08:39:00,79.3,75.8,29.83,North,-999,0.0,0.0,89,0.00,,,-99.99,414,WeatherLink 5.4,2013-10-07 12:39:00,
2013-10-07 08:40:00,80.3,75.0,29.83,North,-999,0.0,0.0,84,0.00,,,-99.99,420,WeatherLink 5.4,2013-10-07 12:40:00,
2013-10-07 08:50:00,81.3,74.5,29.84,North,-999,0.0,0.0,80,0.00,,,-99.99,445,WeatherLink 5.4,2013-10-07 12:50:00,
2013-10-07 08:54:00,81.3,74.5,29.84,North,-999,0.0,0.0,80,0.00,,,-99.99,445,WeatherLink 5.4,2013-10-07 12:54:00,
2013-10-07 09:09:00,82.3,74.4,29.84,East,90,0.0,5.0,77,0.00,,,-99.99,493,WeatherLink 5.4,2013-10-07 13:09:00,
2013-10-07 09:10:00,83.2,74.8,29.84,East,90,0.0,5.0,76,0.00,,,-99.99,520,WeatherLink 5.4,2013-10-07 13:10:00,
2013-10-07 09:20:00,84.0,75.2,29.84,East,90,1.0,5.0,75,0.00,,,-99.99,565,WeatherLink 5.4,2013-10-07 13:20:00,
2013-10-07 09:24:00,84.0,75.2,29.84,East,90,1.0,5.0,75,0.00,,,-99.99,565,WeatherLink 5.4,2013-10-07 13:24:00,
2013-10-07 09:39:00,84.6,74.6,29.84,East,90,1.0,5.0,72,0.00,,,-99.99,588,WeatherLink 5.4,2013-10-07 13:39:00,
2013-10-07 09:40:00,85.1,74.2,29.84,East,90,1.0,6.0,70,0.00,,,-99.99,632,WeatherLink 5.4,2013-10-07 13:40:00,
2013-10-07 09:50:00,85.7,74.4,29.84,East,90,0.0,1.0,69,0.00,,,-99.99,670,WeatherLink 5.4,2013-10-07 13:50:00,
2013-10-07 09:54:00,85.7,74.4,29.84,East,90,0.0,1.0,69,0.00,,,-99.99,670,WeatherLink 5.4,2013-10-07 13:54:00,
2013-10-07 10:09:00,86.5,74.7,29.84,East,90,0.0,2.0,68,0.00,,,-99.99,728,WeatherLink 5.4,2013-10-07 14:09:00,
2013-10-07 10:10:00,87.5,74.7,29.84,SSE,157,0.0,2.0,66,0.00,,,-99.99,726,WeatherLink 5.4,2013-10-07 14:10:00,
2013-10-07 10:20:00,88.2,74.5,29.84,North,-999,0.0,0.0,64,0.00,,,-99.99,802,WeatherLink 5.4,2013-10-07 14:20:00,
2013-10-07 10:24:00,88.2,74.5,29.84,North,-999,0.0,0.0,64,0.00,,,-99.99,802,WeatherLink 5.4,2013-10-07 14:24:00,
2013-10-07 10:39:00,89.0,74.8,29.83,North,-999,0.0,0.0,63,0.00,,,-99.99,547,WeatherLink 5.4,2013-10-07 14:39:00,
2013-10-07 10:40:00,89.3,75.0,29.83,North,-999,0.0,0.0,63,0.00,,,-99.99,172,WeatherLink 5.4,2013-10-07 14:40:00,
2013-10-07 10:50:00,89.0,75.2,29.83,North,-999,0.0,0.0,64,0.00,,,-99.99,424,WeatherLink 5.4,2013-10-07 14:50:00,
2013-10-07 10:53:00,89.0,75.2,29.83,North,-999,0.0,0.0,64,0.00,,,-99.99,424,WeatherLink 5.4,2013-10-07 14:53:00,
2013-10-07 11:08:00,88.9,75.1,29.83,North,-999,0.0,0.0,64,0.00,,,-99.99,143,WeatherLink 5.4,2013-10-07 15:08:00,
2013-10-07 11:10:00,88.7,75.9,29.83,North,-999,0.0,0.0,66,0.00,,,-99.99,187,WeatherLink 5.4,2013-10-07 15:10:00,
2013-10-07 11:20:00,88.3,75.9,29.82,North,-999,0.0,0.0,67,0.00,,,-99.99,250,WeatherLink 5.4,2013-10-07 15:20:00,
2013-10-07 11:25:00,88.3,75.9,29.82,North,-999,0.0,0.0,67,0.00,,,-99.99,250,WeatherLink 5.4,2013-10-07 15:25:00,
2013-10-07 11:39:00,88.5,74.8,29.81,ESE,112,0.0,1.0,64,0.00,,,-99.99,462,WeatherLink 5.4,2013-10-07 15:39:00,
2013-10-07 11:40:00,88.6,73.9,29.81,East,90,2.0,8.0,62,0.00,,,-99.99,982,WeatherLink 5.4,2013-10-07 15:40:00,
2013-10-07 11:50:00,89.2,74.5,29.81,ESE,112,3.0,8.0,62,0.00,,,-99.99,516,WeatherLink 5.4,2013-10-07 15:50:00,
2013-10-07 11:54:00,89.2,74.5,29.81,ESE,112,3.0,8.0,62,0.00,,,-99.99,516,WeatherLink 5.4,2013-10-07 15:54:00,
2013-10-07 12:09:00,89.4,74.2,29.80,East,90,2.0,10.0,61,0.00,,,-99.99,740,WeatherLink 5.4,2013-10-07 16:09:00,
2013-10-07 12:10:00,89.6,74.4,29.80,ESE,112,3.0,8.0,61,0.00,,,-99.99,722,WeatherLink 5.4,2013-10-07 16:10:00,
2013-10-07 12:20:00,89.8,75.0,29.80,ESE,112,3.0,10.0,62,0.00,,,-99.99,839,WeatherLink 5.4,2013-10-07 16:20:00,
2013-10-07 12:24:00,89.8,75.0,29.80,ESE,112,3.0,10.0,62,0.00,,,-99.99,839,WeatherLink 5.4,2013-10-07 16:24:00,
2013-10-07 12:39:00,90.1,73.8,29.79,ESE,112,3.0,10.0,59,0.00,,,-99.99,751,WeatherLink 5.4,2013-10-07 16:39:00,
2013-10-07 12:40:00,90.5,75.7,29.79,East,90,3.0,13.0,62,0.00,,,-99.99,886,WeatherLink 5.4,2013-10-07 16:40:00,
2013-10-07 12:50:00,89.8,76.5,29.79,East,90,2.0,10.0,65,0.00,,,-99.99,402,WeatherLink 5.4,2013-10-07 16:50:00,
2013-10-07 12:54:00,89.8,76.5,29.79,East,90,2.0,10.0,65,0.00,,,-99.99,402,WeatherLink 5.4,2013-10-07 16:54:00,
2013-10-07 13:09:00,89.1,76.3,29.78,East,90,2.0,8.0,66,0.00,,,-99.99,447,WeatherLink 5.4,2013-10-07 17:09:00,
2013-10-07 13:10:00,89.3,76.4,29.78,East,90,1.0,10.0,66,0.00,,,-99.99,414,WeatherLink 5.4,2013-10-07 17:10:00,
2013-10-07 13:20:00,89.4,76.5,29.78,East,90,2.0,11.0,66,0.00,,,-99.99,898,WeatherLink 5.4,2013-10-07 17:20:00,
2013-10-07 13:24:00,89.4,76.5,29.78,East,90,2.0,11.0,66,0.00,,,-99.99,898,WeatherLink 5.4,2013-10-07 17:24:00,
2013-10-07 13:38:00,89.3,76.4,29.77,East,90,4.0,11.0,66,0.00,,,-99.99,271,WeatherLink 5.4,2013-10-07 17:38:00,
2013-10-07 13:40:00,88.7,76.3,29.77,East,90,3.0,8.0,67,0.00,,,-99.99,431,WeatherLink 5.4,2013-10-07 17:40:00,
2013-10-07 13:50:00,88.4,76.5,29.76,ENE,67,2.0,7.0,68,0.00,,,-99.99,179,WeatherLink 5.4,2013-10-07 17:50:00,
2013-10-07 13:53:00,88.4,76.5,29.76,ENE,67,2.0,7.0,68,0.00,,,-99.99,179,WeatherLink 5.4,2013-10-07 17:53:00,
2013-10-07 14:08:00,88.1,76.6,29.76,East,90,1.0,6.0,69,0.00,,,-99.99,121,WeatherLink 5.4,2013-10-07 18:08:00,
2013-10-07 14:10:00,87.8,76.8,29.76,NE,45,1.0,7.0,70,0.00,,,-99.99,94,WeatherLink 5.4,2013-10-07 18:10:00,
2013-10-07 14:20:00,87.5,76.9,29.76,ENE,67,1.0,8.0,71,0.00,,,-99.99,87,WeatherLink 5.4,2013-10-07 18:20:00,
2013-10-07 14:24:00,87.5,76.9,29.76,ENE,67,1.0,8.0,71,0.00,,,-99.99,87,WeatherLink 5.4,2013-10-07 18:24:00,
2013-10-07 14:39:00,87.1,77.0,29.75,ENE,67,0.0,6.0,72,0.00,,,-99.99,113,WeatherLink 5.4,2013-10-07 18:39:00,
2013-10-07 14:40:00,86.5,76.8,29.75,SE,135,4.0,16.0,73,0.00,,,-99.99,82,WeatherLink 5.4,2013-10-07 18:40:00,
2013-10-07 14:50:00,85.2,77.9,29.75,SSW,202,4.0,12.0,79,0.00,,,-99.99,49,WeatherLink 5.4,2013-10-07 18:50:00,
2013-10-07 14:54:00,85.2,77.9,29.75,SSW,202,4.0,12.0,79,0.00,,,-99.99,49,WeatherLink 5.4,2013-10-07 18:54:00,
2013-10-07 15:09:00,84.0,77.5,29.77,SW,225,2.0,9.0,81,0.01,,,-99.99,58,WeatherLink 5.4,2013-10-07 19:09:00,
2013-10-07 15:10:00,82.8,76.7,29.77,WSW,247,1.0,5.0,82,0.01,,,-99.99,52,WeatherLink 5.4,2013-10-07 19:10:00,
2013-10-07 15:20:00,82.2,76.5,29.76,North,-999,0.0,0.0,83,0.01,,,-99.99,63,WeatherLink 5.4,2013-10-07 19:20:00,
2013-10-07 15:24:00,82.2,76.5,29.76,North,-999,0.0,0.0,83,0.01,,,-99.99,63,WeatherLink 5.4,2013-10-07 19:24:00,
2013-10-07 15:39:00,82.0,76.7,29.76,WSW,247,0.0,3.0,84,0.01,,,-99.99,68,WeatherLink 5.4,2013-10-07 19:39:00,
2013-10-07 15:40:00,81.8,76.5,29.76,WSW,247,0.0,5.0,84,0.02,,,-99.99,76,WeatherLink 5.4,2013-10-07 19:40:00,
2013-10-07 15:50:00,81.6,76.3,29.77,North,-999,0.0,0.0,84,0.02,,,-99.99,78,WeatherLink 5.4,2013-10-07 19:50:00,
2013-10-07 15:54:00,81.6,76.3,29.77,North,-999,0.0,0.0,84,0.02,,,-99.99,78,WeatherLink 5.4,2013-10-07 19:54:00,
2013-10-07 16:09:00,81.4,76.5,29.77,North,-999,0.0,0.0,85,0.01,,,-99.99,72,WeatherLink 5.4,2013-10-07 20:09:00,
2013-10-07 16:10:00,81.2,75.9,29.77,WSW,247,1.0,5.0,84,0.01,,,-99.99,74,WeatherLink 5.4,2013-10-07 20:10:00,
2013-10-07 16:20:00,80.6,75.7,29.76,North,-999,0.0,0.0,85,0.01,,,-99.99,80,WeatherLink 5.4,2013-10-07 20:20:00,
2013-10-07 16:24:00,80.6,75.7,29.76,North,-999,0.0,0.0,85,0.01,,,-99.99,80,WeatherLink 5.4,2013-10-07 20:24:00,
2013-10-07 16:38:00,80.3,75.7,29.76,North,-999,0.0,0.0,86,0.01,,,-99.99,72,WeatherLink 5.4,2013-10-07 20:38:00,
2013-10-07 16:40:00,80.3,75.7,29.76,WSW,247,1.0,5.0,86,0.00,,,-99.99,80,WeatherLink 5.4,2013-10-07 20:40:00,
2013-10-07 16:50:00,80.2,75.6,29.77,North,-999,0.0,0.0,86,0.00,,,-99.99,82,WeatherLink 5.4,2013-10-07 20:50:00,
2013-10-07 16:54:00,80.2,75.6,29.77,North,-999,0.0,0.0,86,0.00,,,-99.99,82,WeatherLink 5.4,2013-10-07 20:54:00,
2013-10-07 17:08:00,80.4,75.8,29.77,North,-999,0.0,0.0,86,0.00,,,-99.99,74,WeatherLink 5.4,2013-10-07 21:08:00,
2013-10-07 17:10:00,80.5,75.9,29.77,North,-999,0.0,0.0,86,0.00,,,-99.99,65,WeatherLink 5.4,2013-10-07 21:10:00,
2013-10-07 17:20:00,80.6,76.0,29.77,North,-999,0.0,0.0,86,0.00,,,-99.99,54,WeatherLink 5.4,2013-10-07 21:20:00,
2013-10-07 17:24:00,80.6,76.0,29.77,North,-999,0.0,0.0,86,0.00,,,-99.99,54,WeatherLink 5.4,2013-10-07 21:24:00,
2013-10-07 17:39:00,80.8,76.2,29.77,North,-999,0.0,0.0,86,0.00,,,-99.99,44,WeatherLink 5.4,2013-10-07 21:39:00,
2013-10-07 17:40:00,80.9,76.3,29.77,North,-999,0.0,0.0,86,0.00,,,-99.99,33,WeatherLink 5.4,2013-10-07 21:40:00,
2013-10-07 17:50:00,80.9,76.3,29.77,North,-999,0.0,0.0,86,0.00,,,-99.99,23,WeatherLink 5.4,2013-10-07 21:50:00,
2013-10-07 17:54:00,80.9,76.3,29.77,North,-999,0.0,0.0,86,0.00,,,-99.99,23,WeatherLink 5.4,2013-10-07 21:54:00,
2013-10-07 18:09:00,80.9,76.7,29.77,North,-999,0.0,0.0,87,0.00,,,-99.99,14,WeatherLink 5.4,2013-10-07 22:09:00,
2013-10-07 18:10:00,81.1,76.9,29.77,North,-999,0.0,0.0,87,0.00,,,-99.99,8,WeatherLink 5.4,2013-10-07 22:10:00,
2013-10-07 18:20:00,81.1,77.2,29.77,North,-999,0.0,0.0,88,0.00,,,-99.99,5,WeatherLink 5.4,2013-10-07 22:20:00,
2013-10-07 18:24:00,81.1,77.2,29.77,North,-999,0.0,0.0,88,0.00,,,-99.99,5,WeatherLink 5.4,2013-10-07 22:24:00,
2013-10-07 18:39:00,81.3,77.1,29.77,North,-999,0.0,0.0,87,0.00,,,-99.99,1,WeatherLink 5.4,2013-10-07 22:39:00,
2013-10-07 18:40:00,81.4,77.2,29.77,North,-999,0.0,0.0,87,0.00,,,-99.99,0,WeatherLink 5.4,2013-10-07 22:40:00,
2013-10-07 18:50:00,81.6,77.4,29.77,North,-999,0.0,0.0,87,0.00,,,-99.99,0,WeatherLink 5.4,2013-10-07 22:50:00,
2013-10-07 18:54:00,81.6,77.4,29.77,North,-999,0.0,0.0,87,0.00,,,-99.99,0,WeatherLink 5.4,2013-10-07 22:54:00,
2013-10-07 19:09:00,81.6,77.4,29.77,North,-999,0.0,0.0,87,0.00,,,-99.99,0,WeatherLink 5.4,2013-10-07 23:09:00,
2013-10-07 19:10:00,81.4,77.2,29.77,North,-999,0.0,0.0,87,0.00,,,-99.99,0,WeatherLink 5.4,2013-10-07 23:10:00,
2013-10-07 19:20:00,81.2,77.0,29.78,North,-999,0.0,0.0,87,0.00,,,-99.99,0,WeatherLink 5.4,2013-10-07 23:20:00,
2013-10-07 19:24:00,81.2,77.0,29.78,North,-999,0.0,0.0,87,0.00,,,-99.99,0,WeatherLink 5.4,2013-10-07 23:24:00,
2013-10-07 19:38:00,81.2,77.3,29.78,North,-999,0.0,0.0,88,0.00,,,-99.99,0,WeatherLink 5.4,2013-10-07 23:38:00,
2013-10-07 19:40:00,81.1,77.2,29.78,North,-999,0.0,0.0,88,0.00,,,-99.99,0,WeatherLink 5.4,2013-10-07 23:40:00,
2013-10-07 19:50:00,81.1,77.2,29.79,North,-999,0.0,0.0,88,0.00,,,-99.99,0,WeatherLink 5.4,2013-10-07 23:50:00,
2013-10-07 19:53:00,81.1,77.2,29.79,North,-999,0.0,0.0,88,0.00,,,-99.99,0,WeatherLink 5.4,2013-10-07 23:53:00,
2013-10-07 20:08:00,80.9,77.0,29.80,North,-999,0.0,0.0,88,0.00,,,-99.99,0,WeatherLink 5.4,2013-10-08 00:08:00,
2013-10-07 20:10:00,80.8,76.9,29.80,North,-999,0.0,0.0,88,0.00,,,-99.99,0,WeatherLink 5.4,2013-10-08 00:10:00,
2013-10-07 20:20:00,80.7,77.2,29.80,North,-999,0.0,0.0,89,0.00,,,-99.99,0,WeatherLink 5.4,2013-10-08 00:20:00,
2013-10-07 20:24:00,80.7,77.2,29.80,North,-999,0.0,0.0,89,0.00,,,-99.99,0,WeatherLink 5.4,2013-10-08 00:24:00,
2013-10-07 20:39:00,80.6,77.1,29.81,North,-999,0.0,0.0,89,0.00,,,-99.99,0,WeatherLink 5.4,2013-10-08 00:39:00,
2013-10-07 20:40:00,80.5,77.0,29.81,North,-999,0.0,0.0,89,0.00,,,-99.99,0,WeatherLink 5.4,2013-10-08 00:40:00,
2013-10-07 20:50:00,80.3,77.1,29.82,North,-999,0.0,0.0,90,0.00,,,-99.99,0,WeatherLink 5.4,2013-10-08 00:50:00,
2013-10-07 20:54:00,80.3,77.1,29.82,North,-999,0.0,0.0,90,0.00,,,-99.99,0,WeatherLink 5.4,2013-10-08 00:54:00,
2013-10-07 21:09:00,80.3,77.1,29.83,North,-999,0.0,0.0,90,0.00,,,-99.99,0,WeatherLink 5.4,2013-10-08 01:09:00,
2013-10-07 21:10:00,80.1,76.9,29.83,North,-999,0.0,0.0,90,0.00,,,-99.99,0,WeatherLink 5.4,2013-10-08 01:10:00,
2013-10-07 21:20:00,79.9,76.7,29.83,North,-999,0.0,0.0,90,0.00,,,-99.99,0,WeatherLink 5.4,2013-10-08 01:20:00,
2013-10-07 21:24:00,79.9,76.7,29.83,North,-999,0.0,0.0,90,0.00,,,-99.99,0,WeatherLink 5.4,2013-10-08 01:24:00,
2013-10-07 21:39:00,79.8,76.6,29.83,North,-999,0.0,0.0,90,0.00,,,-99.99,0,WeatherLink 5.4,2013-10-08 01:39:00,
2013-10-07 21:40:00,79.6,76.4,29.83,North,-999,0.0,0.0,90,0.00,,,-99.99,0,WeatherLink 5.4,2013-10-08 01:40:00,
2013-10-07 21:50:00,79.4,76.2,29.83,North,-999,0.0,0.0,90,0.00,,,-99.99,0,WeatherLink 5.4,2013-10-08 01:50:00,
2013-10-07 21:54:00,79.4,76.2,29.83,North,-999,0.0,0.0,90,0.00,,,-99.99,0,WeatherLink 5.4,2013-10-08 01:54:00,
2013-10-07 22:09:00,79.1,75.9,29.83,North,-999,0.0,0.0,90,0.00,,,-99.99,0,WeatherLink 5.4,2013-10-08 02:09:00,
2013-10-07 22:10:00,78.9,75.4,29.83,North,-999,0.0,0.0,89,0.00,,,-99.99,0,WeatherLink 5.4,2013-10-08 02:10:00,
2013-10-07 22:20:00,78.5,75.0,29.83,North,-999,0.0,0.0,89,0.00,,,-99.99,0,WeatherLink 5.4,2013-10-08 02:20:00,
2013-10-07 22:24:00,78.5,75.0,29.83,North,-999,0.0,0.0,89,0.00,,,-99.99,0,WeatherLink 5.4,2013-10-08 02:24:00,
2013-10-07 22:39:00,78.3,74.5,29.84,North,-999,0.0,0.0,88,0.00,,,-99.99,0,WeatherLink 5.4,2013-10-08 02:39:00,
2013-10-07 22:40:00,78.1,74.3,29.84,North,-999,0.0,0.0,88,0.00,,,-99.99,0,WeatherLink 5.4,2013-10-08 02:40:00,
2013-10-07 22:50:00,78.1,74.3,29.84,North,-999,0.0,0.0,88,0.00,,,-99.99,0,WeatherLink 5.4,2013-10-08 02:50:00,
2013-10-07 22:54:00,78.1,74.3,29.84,North,-999,0.0,0.0,88,0.00,,,-99.99,0,WeatherLink 5.4,2013-10-08 02:54:00,
2013-10-07 23:09:00,78.0,74.2,29.83,North,-999,0.0,0.0,88,0.00,,,-99.99,0,WeatherLink 5.4,2013-10-08 03:09:00,
2013-10-07 23:10:00,77.8,74.0,29.83,North,-999,0.0,0.0,88,0.00,,,-99.99,0,WeatherLink 5.4,2013-10-08 03:10:00,
2013-10-07 23:20:00,77.7,73.9,29.83,North,-999,0.0,0.0,88,0.00,,,-99.99,0,WeatherLink 5.4,2013-10-08 03:20:00,
2013-10-07 23:24:00,77.7,73.9,29.83,North,-999,0.0,0.0,88,0.00,,,-99.99,0,WeatherLink 5.4,2013-10-08 03:24:00,
2013-10-07 23:39:00,77.6,73.8,29.83,North,-999,0.0,0.0,88,0.00,,,-99.99,0,WeatherLink 5.4,2013-10-08 03:39:00,
2013-10-07 23:40:00,77.4,73.9,29.83,North,-999,0.0,0.0,89,0.00,,,-99.99,0,WeatherLink 5.4,2013-10-08 03:40:00,
2013-10-07 23:50:00,77.3,73.8,29.83,North,-999,0.0,0.0,89,0.00,,,-99.99,0,WeatherLink 5.4,2013-10-08 03:50:00,
2013-10-07 23:54:00,77.3,73.8,29.83,North,-999,0.0,0.0,89,0.00,,,-99.99,0,WeatherLink 5.4,2013-10-08 03:54:00,